KQ4NAL Weather Reports


Display with metric or nautical units.
time (UTC)temp
F
wind
direction
speed
MPH
gust
MPH
rain 1hr
in
rain 24hr
in
rain mn
in
humidity
%
barometer
mb
20260507093255 39 356 0.0 0.0 0.00 0.00 0.00 99 1016.2
20260507092752 39 354 0.0 0.0 0.00 0.00 0.00 99 1016.0
20260507092248 39 357 0.0 0.0 0.00 0.00 0.00 99 1016.1
20260507091745 38 354 0.0 0.0 0.00 0.00 0.00 99 1016.2
20260507091241 38 351 0.0 0.0 0.00 0.00 0.00 99 1016.1
20260507090736 38 355 0.0 0.0 0.00 0.00 0.00 99 1016.2
20260507090233 39 355 0.0 0.0 0.00 0.00 0.00 99 1016.0
20260507085731 38 359 0.0 0.0 0.00 0.00 0.00 99 1016.3
20260507085227 38 355 0.0 0.0 0.00 0.00 0.00 99 1016.0
20260507084725 38 355 0.0 0.0 0.00 0.00 0.00 99 1015.8
20260507084221 38 355 0.0 0.0 0.00 0.00 0.00 99 1015.8
20260507083719 39 355 0.0 0.0 0.00 0.00 0.00 99 1015.9
20260507083215 38 355 0.0 0.0 0.00 0.00 0.00 99 1015.9
20260507082711 39 355 0.0 0.0 0.00 0.00 0.00 99 1015.8
20260507082207 39 355 0.0 0.0 0.00 0.00 0.00 99 1015.9
20260507081704 39 355 0.0 0.0 0.00 0.00 0.00 99 1015.7
20260507081200 39 355 0.0 0.0 0.00 0.00 0.00 99 1015.9
20260507080657 39 355 0.0 0.0 0.00 0.00 0.00 99 1015.8
20260507080153 37 355 0.0 0.0 0.00 0.00 0.00 99 1015.8
20260507075648 38 355 0.0 0.0 0.00 0.00 0.00 99 1015.7
20260507075145 39 355 0.0 0.0 0.00 0.00 0.00 99 1015.8
20260507074641 39 355 0.0 0.0 0.00 0.00 0.00 99 1015.8
20260507074140 40 355 0.0 0.0 0.00 0.00 0.00 99 1015.7
20260507073636 40 355 0.0 0.0 0.00 0.00 0.00 99 1015.6
20260507073132 39 355 0.0 0.0 0.00 0.00 0.00 99 1015.6
20260507072630 40 355 0.0 0.0 0.00 0.00 0.00 99 1015.8
20260507072127 40 356 0.0 0.0 0.00 0.00 0.00 99 1015.7
20260507071625 40 355 0.0 0.0 0.00 0.00 0.00 99 1015.8
20260507071121 39 355 0.0 0.0 0.00 0.00 0.00 99 1015.8
20260507070618 39 355 0.0 0.0 0.00 0.00 0.00 98 1015.8
20260507070115 39 355 0.0 0.0 0.00 0.00 0.00 98 1015.8
20260507065611 39 355 0.0 0.0 0.00 0.00 0.00 98 1016.0
20260507065108 39 355 0.0 0.0 0.00 0.00 0.00 99 1015.8
20260507064606 39 355 0.0 0.0 0.00 0.00 0.00 98 1015.8
20260507064104 40 355 0.0 0.0 0.00 0.00 0.00 99 1015.8
20260507063601 39 355 0.0 0.0 0.00 0.00 0.00 98 1015.8
20260507063059 39 355 0.0 0.0 0.00 0.00 0.00 98 1016.0
20260507062555 40 355 0.0 0.0 0.00 0.00 0.00 98 1016.0
20260507062053 40 355 0.0 0.0 0.00 0.00 0.00 98 1016.0
20260507061550 41 354 0.0 0.0 0.00 0.00 0.00 98 1015.9
20260507061048 41 1 0.0 0.0 0.00 0.00 0.00 98 1015.9
20260507060546 41 358 0.0 0.0 0.00 0.00 0.00 98 1015.6
20260507060042 41 358 0.0 0.0 0.00 0.00 0.00 98 1016.0
20260507055542 41 356 0.0 0.0 0.00 0.00 0.00 98 1015.9
20260507055039 41 355 0.0 0.0 0.00 0.00 0.00 98 1015.6
20260507054535 40 357 0.0 0.0 0.00 0.00 0.00 98 1015.9
20260507054032 41 357 0.0 0.0 0.00 0.00 0.00 97 1016.0
20260507053530 41 359 0.0 0.0 0.00 0.00 0.00 97 1016.0
20260507053029 41 355 0.0 0.0 0.00 0.00 0.00 98 1016.1
20260507052526 41 355 0.0 0.0 0.00 0.00 0.00 97 1016.0
20260507052022 41 355 0.0 0.0 0.00 0.00 0.00 97 1015.9
20260507051520 41 355 0.0 0.0 0.00 0.00 0.00 97 1016.0
20260507051017 41 355 0.0 0.0 0.00 0.00 0.00 97 1015.7
20260507050513 41 355 0.0 0.0 0.00 0.00 0.00 97 1015.9
20260507050010 41 354 0.0 0.0 0.00 0.00 0.00 97 1015.9
20260507045507 42 354 0.0 0.0 0.00 0.00 0.00 97 1016.3
20260507045004 42 357 0.0 0.0 0.00 0.00 0.00 96 1016.1
20260507044501 42 357 0.0 0.0 0.00 0.00 0.00 96 1016.2
20260507043957 42 359 0.0 0.0 0.00 0.00 0.00 96 1016.2
20260507043453 42 359 0.0 0.0 0.00 0.00 0.00 96 1016.2
20260507042949 42 0 0.0 0.0 0.00 0.00 0.00 96 1016.2
20260507042446 42 354 0.0 0.0 0.00 0.00 0.00 95 1016.3
20260507041942 43 354 0.0 0.0 0.00 0.00 0.00 95 1016.1
20260507041439 42 354 0.0 0.0 0.00 0.00 0.00 95 1016.2
20260507040936 42 354 0.0 0.0 0.00 0.00 0.00 95 1016.1
20260507040432 42 354 0.0 0.0 0.00 0.00 0.00 95 1016.2
20260507035928 43 354 0.0 0.0 0.00 0.59 0.59 95 1015.9
20260507035425 43 353 0.0 0.0 0.00 0.59 0.59 95 1016.1
20260507034921 43 355 0.0 0.0 0.00 0.59 0.59 94 1015.7
20260507034418 43 355 0.0 0.0 0.00 0.59 0.59 94 1015.9
20260507033916 43 354 0.0 0.0 0.00 0.59 0.59 94 1016.2
20260507033414 44 354 0.0 0.0 0.00 0.59 0.59 94 1015.8
20260507032911 44 355 0.0 0.0 0.00 0.59 0.59 94 1016.0
20260507032408 44 355 0.0 0.0 0.00 0.59 0.59 93 1015.9
20260507031904 43 355 0.0 0.0 0.00 0.59 0.59 93 1016.2
20260507031400 44 355 0.0 0.0 0.00 0.59 0.59 93 1016.0
20260507030857 44 355 0.0 0.0 0.00 0.59 0.59 92 1016.0
20260507030354 44 355 0.0 0.0 0.00 0.59 0.59 92 1015.9
20260507025851 44 355 0.0 0.0 0.00 0.59 0.59 92 1016.1
20260507025349 45 355 0.0 0.0 0.00 0.59 0.59 91 1016.1
20260507024846 45 355 0.0 0.0 0.00 0.59 0.59 91 1015.9
20260507024343 46 354 0.0 0.0 0.00 0.59 0.59 90 1015.8
20260507023839 46 355 0.0 0.0 0.00 0.59 0.59 90 1015.9
20260507023336 46 355 0.0 0.0 0.00 0.59 0.59 90 1015.8
20260507022834 46 355 0.0 0.0 0.00 0.59 0.59 89 1015.8
20260507022330 47 355 0.0 0.0 0.00 0.59 0.59 88 1015.9
20260507021826 47 355 0.0 0.0 0.00 0.59 0.59 88 1015.7
20260507021321 48 354 0.0 0.0 0.00 0.59 0.59 87 1015.7
20260507020820 48 355 0.0 0.0 0.00 0.59 0.59 87 1015.7
20260507020316 48 355 0.0 0.0 0.00 0.59 0.59 86 1015.7
20260507015813 49 355 0.0 0.0 0.00 0.59 0.59 85 1015.6
20260507015311 49 355 0.0 0.0 0.00 0.59 0.59 85 1015.6
20260507014808 50 357 0.0 0.0 0.00 0.59 0.59 84 1015.4
20260507014304 50 355 0.0 0.0 0.00 0.59 0.59 83 1015.5
20260507013800 50 357 0.0 0.0 0.00 0.59 0.59 82 1015.6
20260507013258 51 357 0.0 0.0 0.00 0.59 0.59 82 1015.5
20260507012755 50 358 0.0 0.0 0.00 0.59 0.59 79 1015.4
20260507012250 51 358 0.0 0.0 0.00 0.59 0.59 78 1015.5
20260507011748 51 358 0.0 0.0 0.00 0.59 0.59 77 1015.3
20260507011245 51 357 0.0 0.0 0.00 0.59 0.59 76 1015.4
20260507010744 52 357 1.0 1.0 0.00 0.59 0.59 75 1015.1
20260507010240 53 359 0.0 0.0 0.00 0.59 0.59 73 1015.2
20260507005738 53 356 0.0 0.0 0.00 0.59 0.59 69 1015.3
20260507005234 54 352 0.0 1.0 0.00 0.59 0.59 67 1015.0
20260507004731 54 340 0.0 1.0 0.00 0.59 0.59 66 1015.0
20260507004229 55 350 2.0 3.0 0.00 0.59 0.59 65 1015.1
20260507003725 55 347 2.0 2.0 0.00 0.59 0.59 64 1015.0
20260507003220 55 319 4.0 6.0 0.00 0.59 0.59 63 1015.3
20260507002716 56 15 1.0 1.0 0.00 0.59 0.59 64 1015.0
20260507002213 56 355 0.0 0.0 0.00 0.59 0.59 64 1014.9
20260507001709 56 354 1.0 1.0 0.00 0.59 0.59 61 1014.7
20260507001207 57 344 0.0 1.0 0.00 0.59 0.59 61 1015.0
20260507000703 57 5 1.0 2.0 0.00 0.59 0.59 61 1014.7
20260507000159 57 19 1.0 2.0 0.00 0.59 0.59 61 1014.8
20260506235656 57 349 0.0 1.0 0.00 0.59 0.59 60 1014.8
20260506235151 57 343 3.0 3.0 0.00 0.59 0.59 58 1014.8
20260506234648 57 357 1.0 1.0 0.00 0.59 0.59 58 1014.7
20260506234145 58 0 1.0 2.0 0.00 0.59 0.59 58 1014.6
20260506233642 58 338 3.0 5.0 0.00 0.59 0.59 56 1014.2
20260506233139 58 359 3.0 3.0 0.00 0.59 0.59 57 1014.1
20260506232636 58 336 1.0 2.0 0.00 0.59 0.59 58 1014.2
20260506232131 58 348 3.0 3.0 0.00 0.59 0.59 57 1014.2
20260506231628 58 334 2.0 2.0 0.00 0.59 0.59 56 1014.2
20260506231127 58 13 3.0 5.0 0.00 0.59 0.59 56 1014.1
20260506230623 58 320 3.0 3.0 0.00 0.59 0.59 56 1014.2
20260506230120 58 2 2.0 2.0 0.00 0.59 0.59 56 1013.9
20260506225617 58 325 2.0 3.0 0.00 0.59 0.59 56 1013.8
20260506225113 58 328 3.0 3.0 0.00 0.59 0.59 56 1013.9
20260506224610 58 334 4.0 5.0 0.00 0.59 0.59 55 1013.8
20260506224107 58 312 3.0 3.0 0.00 0.59 0.59 54 1013.9
20260506223603 58 0 3.0 3.0 0.00 0.59 0.59 56 1014.1
20260506223059 58 289 3.0 5.0 0.00 0.59 0.59 55 1014.2
20260506222556 59 345 2.0 2.0 0.00 0.59 0.59 55 1014.3
20260506222052 59 334 3.0 3.0 0.00 0.59 0.59 56 1014.3
20260506221550 59 6 2.0 2.0 0.00 0.59 0.59 55 1014.2
20260506221048 59 15 2.0 3.0 0.00 0.59 0.59 54 1014.3
20260506220544 60 333 4.0 5.0 0.00 0.59 0.59 55 1014.4
20260506220039 60 354 0.0 1.0 0.00 0.59 0.59 54 1014.4
20260506215536 60 308 2.0 2.0 0.00 0.59 0.59 56 1014.7
20260506215032 60 323 1.0 1.0 0.00 0.59 0.59 56 1014.5
20260506214529 60 346 3.0 3.0 0.00 0.59 0.59 54 1014.5
20260506214026 60 338 5.0 7.0 0.00 0.59 0.59 55 1014.3
20260506213525 60 319 6.0 7.0 0.00 0.59 0.59 53 1014.3
20260506213021 60 359 2.0 2.0 0.00 0.59 0.59 55 1014.4
20260506212518 60 359 1.0 2.0 0.00 0.59 0.59 55 1014.4
20260506212013 60 344 5.0 6.0 0.00 0.59 0.59 55 1014.3
20260506211509 60 4 3.0 5.0 0.00 0.59 0.59 56 1014.1
20260506211006 60 319 3.0 3.0 0.00 0.59 0.59 57 1014.0
20260506210502 60 8 6.0 8.0 0.00 0.59 0.59 56 1014.1
20260506205959 60 336 3.0 3.0 0.00 0.59 0.59 55 1013.9
20260506205456 60 357 2.0 2.0 0.00 0.59 0.59 56 1013.9
20260506204952 60 358 5.0 6.0 0.00 0.59 0.59 54 1013.9
20260506204450 60 346 2.0 2.0 0.00 0.59 0.59 55 1013.8
20260506203947 60 334 2.0 3.0 0.00 0.59 0.59 52 1013.8
20260506203444 61 349 1.0 1.0 0.00 0.59 0.59 53 1013.9
20260506202941 62 6 2.0 3.0 0.00 0.59 0.59 50 1013.8
20260506202438 61 0 0.0 1.0 0.00 0.59 0.59 53 1013.9
20260506201934 61 341 3.0 5.0 0.00 0.59 0.59 51 1014.1
20260506201432 61 4 2.0 3.0 0.00 0.59 0.59 52 1013.9
20260506200928 61 13 2.0 3.0 0.00 0.59 0.59 51 1013.8
20260506200425 62 3 3.0 3.0 0.00 0.59 0.59 50 1014.0
20260506195921 62 7 2.0 2.0 0.00 0.59 0.59 52 1013.9
20260506195419 63 6 3.0 3.0 0.00 0.59 0.59 50 1014.0
20260506194915 62 358 2.0 3.0 0.00 0.59 0.59 48 1014.1
20260506194412 61 11 2.0 2.0 0.00 0.59 0.59 51 1014.2
20260506193909 61 348 2.0 2.0 0.00 0.59 0.59 51 1014.0
20260506193406 62 9 4.0 5.0 0.00 0.59 0.59 49 1014.3
20260506192902 63 10 7.0 10.0 0.00 0.59 0.59 51 1014.0
20260506192359 65 246 3.0 3.0 0.00 0.59 0.59 49 1013.7
20260506191856 63 348 1.0 1.0 0.00 0.59 0.59 49 1013.7
20260506191352 62 8 1.0 1.0 0.00 0.59 0.59 53 1013.8
20260506190850 63 334 3.0 3.0 0.00 0.59 0.59 47 1013.9
20260506190346 62 346 2.0 3.0 0.00 0.59 0.59 51 1013.8
20260506185843 62 16 2.0 5.0 0.00 0.59 0.59 55 1014.1
20260506185340 62 353 1.0 2.0 0.00 0.59 0.59 54 1013.9
20260506184837 60 7 7.0 9.0 0.00 0.59 0.59 52 1013.7
20260506184334 61 338 5.0 5.0 0.00 0.59 0.59 54 1013.8
20260506183832 61 319 2.0 3.0 0.00 0.59 0.59 54 1013.8
20260506183326 60 10 5.0 7.0 0.00 0.59 0.59 55 1013.4
20260506182824 61 13 4.0 5.0 0.00 0.59 0.59 57 1013.6
20260506182321 61 351 6.0 8.0 0.00 0.59 0.59 53 1013.6
20260506181819 60 12 1.0 1.0 0.00 0.59 0.59 54 1013.6
20260506181316 61 356 5.0 7.0 0.00 0.59 0.59 55 1013.8
20260506180814 61 308 2.0 2.0 0.00 0.59 0.59 57 1013.6
20260506180309 60 2 2.0 3.0 0.00 0.59 0.59 58 1013.9
20260506175806 59 327 2.0 3.0 0.00 0.59 0.59 56 1013.9
20260506175306 60 354 4.0 5.0 0.00 0.59 0.59 55 1014.1
20260506174800 60 6 3.0 3.0 0.00 0.59 0.59 57 1013.9
20260506174257 60 9 2.0 2.0 0.00 0.59 0.59 55 1013.8
20260506173755 59 353 3.0 5.0 0.00 0.59 0.59 55 1014.1
20260506173251 58 354 6.0 8.0 0.00 0.59 0.59 59 1014.3
20260506172748 59 258 3.0 3.0 0.00 0.59 0.59 58 1014.5
20260506172245 59 328 1.0 2.0 0.00 0.59 0.59 59 1014.1
20260506171743 58 28 2.0 2.0 0.00 0.59 0.59 60 1014.2
20260506171239 58 357 5.0 7.0 0.00 0.59 0.59 58 1014.3
20260506170737 57 317 3.0 3.0 0.00 0.59 0.59 60 1014.5
20260506170233 57 342 3.0 3.0 0.00 0.59 0.59 61 1014.4
20260506165732 58 331 4.0 5.0 0.00 0.59 0.59 60 1014.6
20260506165229 57 341 5.0 7.0 0.00 0.59 0.59 62 1014.5
20260506164726 57 7 3.0 5.0 0.00 0.59 0.59 63 1014.5
20260506164223 57 10 6.0 7.0 0.00 0.59 0.59 63 1014.2
20260506163719 57 341 3.0 5.0 0.00 0.59 0.59 65 1014.5
20260506163214 56 286 5.0 8.0 0.00 0.59 0.59 64 1014.6
20260506162711 56 327 5.0 6.0 0.00 0.59 0.59 65 1014.7
20260506162208 56 351 5.0 7.0 0.00 0.59 0.59 65 1014.5
20260506161705 56 323 5.0 7.0 0.00 0.59 0.59 64 1014.3
20260506161202 55 348 1.0 2.0 0.00 0.59 0.59 68 1014.4
20260506160700 56 10 9.0 11.0 0.00 0.59 0.59 66 1014.3
20260506160156 56 322 6.0 7.0 0.00 0.59 0.59 66 1014.5
20260506155655 56 313 3.0 5.0 0.00 0.59 0.59 67 1014.4
20260506155152 55 353 4.0 6.0 0.00 0.59 0.59 69 1014.2
20260506153254 55 331 8.0 10.0 0.00 0.59 0.59 70 1014.2
20260506152750 55 329 9.0 11.0 0.00 0.59 0.59 70 1014.2
20260506152248 55 3 5.0 6.0 0.00 0.59 0.59 71 1014.2
20260506151747 55 318 7.0 9.0 0.00 0.59 0.59 69 1014.2
20260506151243 54 310 6.0 8.0 0.00 0.59 0.59 71 1013.8
20260506150740 54 10 5.0 7.0 0.00 0.59 0.59 73 1013.9
20260506150237 53 315 4.0 6.0 0.00 0.59 0.59 75 1013.8
20260506145734 53 85 2.0 5.0 0.00 0.59 0.59 75 1013.7
20260506145230 52 359 7.0 9.0 0.00 0.59 0.59 75 1013.7
20260506144728 53 17 5.0 6.0 0.00 0.59 0.59 76 1013.9
20260506144224 53 338 1.0 1.0 0.00 0.59 0.59 79 1013.5
20260506143722 52 325 5.0 6.0 0.00 0.59 0.59 79 1013.4
20260506143219 53 10 2.0 3.0 0.00 0.59 0.59 80 1013.5
20260506142718 52 334 2.0 2.0 0.00 0.59 0.59 80 1013.5
20260506142216 52 4 11.0 13.0 0.00 0.59 0.59 80 1013.4
20260506141713 52 9 5.0 7.0 0.00 0.59 0.59 81 1013.2
20260506141211 51 16 4.0 5.0 0.00 0.59 0.59 82 1013.0
20260506140709 51 352 6.0 8.0 0.00 0.59 0.59 83 1013.1
20260506140206 50 350 3.0 3.0 0.00 0.59 0.59 85 1013.1
20260506135702 50 353 7.0 9.0 0.00 0.59 0.59 87 1012.6
20260506135159 50 15 5.0 6.0 0.00 0.59 0.59 90 1012.8
20260506134655 49 309 4.0 5.0 0.00 0.59 0.59 91 1013.1
20260506134151 49 354 3.0 3.0 0.00 0.59 0.59 94 1013.1
20260506133649 48 336 4.0 6.0 0.00 0.59 0.59 95 1013.2
20260506133146 48 341 1.0 1.0 0.00 0.59 0.59 98 1013.5
20260506132643 47 4 2.0 2.0 0.00 0.59 0.59 98 1013.2
20260506132139 47 15 5.0 6.0 0.00 0.59 0.59 99 1013.2
20260506131637 46 349 0.0 0.0 0.00 0.59 0.59 99 1013.0
20260506131133 46 352 1.0 1.0 0.00 0.59 0.59 99 1012.7
20260506130630 46 324 4.0 5.0 0.00 0.59 0.59 99 1012.4
20260506130128 46 317 3.0 3.0 0.00 0.59 0.59 99 1012.3
20260506125626 45 335 2.0 2.0 0.00 0.59 0.59 99 1012.7
20260506125123 45 284 4.0 6.0 0.00 0.59 0.59 99 1012.8
20260506124621 45 352 4.0 6.0 0.00 0.59 0.59 99 1012.7
20260506124119 46 350 2.0 3.0 0.00 0.59 0.59 99 1012.4
20260506123616 45 12 3.0 3.0 0.00 0.59 0.59 99 1012.4
20260506123114 45 346 1.0 2.0 0.00 0.59 0.59 99 1012.7
20260506122611 45 341 3.0 3.0 0.00 0.59 0.59 99 1012.3
20260506122109 44 348 2.0 2.0 0.00 0.59 0.59 99 1012.3
20260506121606 44 6 3.0 3.0 0.00 0.59 0.59 99 1012.5
20260506121102 44 328 1.0 2.0 0.00 0.59 0.59 99 1012.2
20260506120600 44 316 3.0 3.0 0.00 0.59 0.59 99 1012.0
20260506120057 44 11 2.0 2.0 0.00 0.59 0.59 99 1012.0
20260506115555 44 353 3.0 3.0 0.00 0.59 0.59 99 1012.0
20260506115053 44 311 3.0 3.0 0.00 0.59 0.59 99 1011.9
20260506114550 44 356 3.0 7.0 0.00 0.59 0.59 99 1012.1
20260506114049 44 352 0.0 1.0 0.00 0.59 0.59 99 1012.1
20260506113546 44 322 5.0 6.0 0.00 0.59 0.59 99 1011.5
20260506113044 44 325 2.0 3.0 0.00 0.59 0.59 99 1011.6
20260506112540 44 308 5.0 8.0 0.00 0.59 0.59 99 1011.2
20260506112037 44 358 2.0 2.0 0.00 0.59 0.59 99 1011.4
20260506111535 44 341 2.0 3.0 0.00 0.59 0.59 99 1011.2
20260506111032 44 290 4.0 5.0 0.00 0.59 0.59 99 1011.0
20260506110530 44 321 3.0 5.0 0.00 0.59 0.59 99 1010.9
20260506110027 44 317 3.0 6.0 0.00 0.59 0.59 99 1011.1
20260506105523 44 347 1.0 2.0 0.00 0.59 0.59 99 1010.8
20260506105020 44 5 0.0 0.0 0.00 0.59 0.59 99 1011.0
20260506104518 44 349 3.0 3.0 0.00 0.59 0.59 99 1010.5
20260506104016 44 339 2.0 2.0 0.00 0.59 0.59 99 1010.4
20260506103513 45 342 2.0 2.0 0.00 0.59 0.59 99 1010.5
20260506103010 45 346 3.0 3.0 0.00 0.59 0.59 99 1010.5
20260506102508 45 11 2.0 3.0 0.00 0.59 0.59 99 1010.5
20260506102005 45 351 1.0 1.0 0.00 0.59 0.59 99 1010.4
20260506101501 45 348 1.0 2.0 0.00 0.59 0.59 99 1010.0
20260506100959 45 328 2.0 2.0 0.00 0.59 0.59 99 1009.8
20260506100457 45 341 3.0 3.0 0.00 0.59 0.59 99 1010.0
20260506095955 45 10 3.0 3.0 0.00 0.59 0.59 99 1009.6
20260506095453 45 349 2.0 2.0 0.00 0.59 0.59 99 1010.0
20260506094948 45 357 1.0 1.0 0.00 0.59 0.59 99 1010.0
20260506094447 45 337 2.0 2.0 0.00 0.59 0.59 99 1010.1
20260506093944 45 349 2.0 3.0 0.00 0.59 0.59 99 1010.0